Location: Käfertal
(49.5103°N, 8.5117°E)
Time: 10:02:20
(UTC+00:00)

Daily predictions for brighter satellites

Satellite Brightness Start Highest point End
(mag) Time Altitude Azimuth Time Altitude Azimuth Time Altitude Azimuth
Okean O Rocket 2.1 19:35:00 10° SE 19:39:02 42° ENE 19:43:07 10° N
Cosmos 2100 Rocket 4.3 19:34:27 10° SSW 19:40:42 75° WNW 19:47:03 10° N
Meteor 1-27 4.2 19:36:31 10° S 19:42:07 71° E 19:47:41 10° NNE
Cosmos 2228 3.1 19:38:30 10° S 19:42:27 49° E 19:46:26 10° NNE
NOSS 3-4 (A) 4.5 19:36:43 10° NW 19:42:51 45° NE 19:50:03 10° ESE
SPOT 5 4.3 19:39:06 10° SSW 19:43:02 34° W 19:47:05 10° NNW
SL-24 R/B 4.3 19:38:54 10° NNE 19:43:12 85° WNW 19:47:56 10° SSW
SL-16 R/B 2.9 19:37:54 10° NNW 19:43:19 43° NE 19:48:42 10° ESE
NOSS 3-4 (C) 4.5 19:37:19 10° NW 19:43:30 45° NE 19:50:42 10° ESE
USA 186 2.6 19:41:17 10° SE 19:43:40 27° ENE 19:46:05 10° N
Okean 1 Rocket 4.2 19:44:26 10° SSW 19:48:41 48° WNW 19:53:00 10° N
Cosmos 2084 Rocket 3.9 19:47:00 10° NW 19:51:07 55° SW 19:55:15 10° SSE
Cosmos 2233 Rocket 4.1 19:45:06 10° S 19:51:10 62° E 19:57:15 10° NNE
ATLAS 2AS CENTAUR R/B 4.4 19:45:51 10° W 19:52:13 38° NNW 19:58:30 10° NE
SKYMED 3 4.3 19:53:20 10° NNE 19:57:18 77° ESE 20:01:16 10° S
CZ-2C R/B 4.4 19:56:39 10° ENE 19:57:24 11° ENE 19:58:10 10° NE
COSMOS 2406 3.6 19:53:00 10° S 19:58:20 42° ESE 20:03:42 10° NE
Cosmos 1980 Rocket 3.3 19:53:32 10° NW 19:58:51 42° WSW 20:04:08 10° S
Okean-O 2.7 19:55:29 10° SSE 19:59:48 66° ENE 20:04:10 10° N
Cosmos 1782 2.5 19:56:21 10° S 19:59:52 83° W 20:03:25 10° N
CZ-4 R/B 3.0 19:57:07 10° SSW 20:00:18 29° W 20:03:32 10° NNW
Ariane Rocket 4.0 19:58:02 10° SE 20:02:31 33° ENE 20:07:03 10° N
Cosmos 1933 4.3 20:02:11 11° SE 20:05:13 26° E 20:08:26 10° NNE
SPOT 3 Rocket 4.1 20:01:10 11° SE 20:05:55 44° ENE 20:10:47 10° N
Cosmos 1758 Rocket 3.9 20:02:14 10° N 20:06:33 52° ENE 20:10:37 11° SSE
Spot 2 Rocket 3.5 20:02:45 10° SSE 20:07:46 86° ENE 20:12:50 10° NNW
Cosmos 1725 Rocket 4.3 20:03:39 10° SSW 20:09:54 72° W 20:16:09 10° N
Cosmos 2333 Rocket 2.5 20:05:36 10° NNW 20:11:15 59° ENE 20:16:16 13° SE
ERS-1 Rocket 4.1 20:09:12 10° S 20:13:57 43° W 20:18:44 10° NNW
Tsikada Rocket 4.1 20:12:11 10° NNW 20:18:21 78° W 20:24:29 10° S
USA 245 4.4 20:19:40 12° SSE 20:25:05 69° ENE 20:30:35 10° N
Cosmos 2360 Rocket 2.8 20:19:38 10° NNW 20:25:07 46° NE 20:29:39 15° ESE
Cosmos 1461 2.7 20:22:41 10° SSW 20:26:16 49° ESE 20:29:49 10° NE
CZ-4B R/B 4.3 20:21:39 10° S 20:27:02 44° W 20:32:24 10° NNW
CZ-4B R/B 3.6 20:25:36 16° SE 20:29:21 56° ENE 20:34:06 10° N
CZ-4C R/B 3.7 20:26:05 10° W 20:30:18 36° NNW 20:35:41 10° NE
Cosmos 1602 Rocket 3.8 20:26:32 10° N 20:30:46 53° ENE 20:33:50 18° SSE
Cosmos 1992 Rocket 4.0 20:25:42 10° SSW 20:30:55 86° WNW 20:36:10 10° NNE
YAOGAN 11 4.1 20:29:33 10° NNE 20:34:01 88° WNW 20:38:29 10° SSW
ISS -3.2 20:33:55 10° W 20:37:14 58° N 20:40:33 10° ENE
Cosmos 1777 Rocket 4.4 20:32:20 10° NNW 20:37:29 54° ENE 20:41:09 18° SE
Cosmos 2219 Rocket 3.1 20:33:11 10° NNW 20:38:29 39° NE 20:42:48 15° ESE
Meteor 1-25 Rocket 4.2 20:33:45 10° N 20:39:26 71° ENE 20:43:46 17° SSE
Cosmos 220 Rocket 4.1 20:36:01 12° S 20:39:30 47° ESE 20:43:27 10° NNE
Cosmos 1437 Rocket 2.4 20:36:40 13° S 20:39:44 70° E 20:43:19 10° NNE
USA 290 3.7 20:39:46 19° ESE 20:39:51 19° ESE 20:42:11 10° NE
SL-08 R/B 4.2 20:39:34 10° N 20:44:14 51° WNW 20:48:49 10° SW
Cosmos 1503 Rocket 4.5 20:40:56 10° NNW 20:45:59 49° ENE 20:49:23 20° SE
DEBRIS 3.5 20:43:45 10° W 20:46:59 88° SSE 20:57:19 10° E
Cosmos 1626 Rocket 4.1 20:42:50 10° NNW 20:47:07 57° W 20:51:00 12° S
Cosmos 2098 Rocket 3.4 20:44:23 18° SSE 20:47:38 48° E 20:51:41 10° NNE
NOSS 3-3 (A) 4.2 20:44:18 10° SW 20:49:32 67° NW 20:55:55 10° NE
Terra 4.0 20:48:12 10° SW 20:51:47 22° W 20:55:25 10° NW
Cosmos 2151 3.2 20:51:04 10° NNW 20:55:08 62° W 20:58:09 17° S
Cosmos 2322 Rocket 2.2 20:51:20 10° NNW 20:57:02 79° ENE 21:00:46 22° SE
Cosmos 1486 Rocket 4.0 20:51:52 10° NNW 20:57:10 85° ENE 21:00:35 23° SSE
Cosmos 1513 Rocket 4.4 20:51:10 10° S 20:57:22 82° E 21:03:30 10° N
IRS-1C Rocket 4.1 20:53:40 19° SSE 20:57:31 89° WSW 21:02:50 10° NNW
Cosmos 1464 Rocket 4.1 20:53:50 17° SSE 20:58:31 59° E 21:04:36 10° NNE
Cosmos 2082 Rocket 3.6 20:56:08 10° WSW 21:01:31 41° NW 21:06:54 10° NNE
USA 306 3.7 21:01:17 10° WNW 21:03:33 23° NNW 21:04:50 13° NE
Cosmos 1606 Rocket 3.7 21:03:17 25° SSE 21:05:33 54° E 21:09:47 10° NNE
Meteor 2-10 4.2 20:59:49 10° N 21:05:35 76° ENE 21:09:14 23° SSE
CZ-4B R/B 3.4 21:09:42 21° SSW 21:11:35 42° W 21:14:54 10° NNW
Cosmos 1766 4.3 21:09:47 10° NNE 21:12:27 23° ENE 21:13:02 22° E
USA 186 4.2 21:11:35 10° SW 21:13:06 14° W 21:14:37 10° WNW
Cosmos 1726 Rocket 3.7 21:12:34 31° SSE 21:14:03 47° E 21:17:56 10° NNE
Cosmos 2237 Rocket 4.4 21:10:46 10° N 21:14:27 17° NE 21:18:08 10° ENE
Cosmos 1428 Rocket 4.5 21:09:02 10° N 21:15:18 76° E 21:19:09 24° SSE
Okean O Rocket 3.6 21:11:59 10° SW 21:15:24 23° W 21:18:50 10° NW
Cosmos 540 Rocket 3.9 21:13:17 26° SSE 21:15:35 42° ESE 21:20:25 10° NE
Cosmos 1072 Rocket 4.5 21:11:32 16° S 21:16:44 85° E 21:23:07 10° N
Aureole 1 Rocket 4.5 21:13:04 10° NNW 21:18:31 48° ENE 21:22:39 22° SE
Cosmos 1805 3.3 21:17:56 10° NNW 21:21:08 53° W 21:22:21 31° SSW
Cosmos 2278 4.2 21:17:25 10° NW 21:22:57 52° WSW 21:26:23 23° S
Meteor 1-5 Rocket 4.4 21:19:52 10° NNW 21:25:36 73° W 21:29:21 23° S
COSMOS 2428 3.9 21:21:07 10° NNW 21:26:16 33° NE 21:30:13 15° ESE
SL-16 R/B 3.2 21:22:09 10° NW 21:27:21 38° WSW 21:30:55 18° SSW
CZ-2C R/B 2.8 21:27:14 35° SW 21:27:48 40° W 21:30:28 10° NNW
Okean 1-7 Rocket 3.8 21:23:50 10° NNW 21:28:16 68° W 21:30:35 28° S
Geosat 4.3 21:28:30 10° NE 21:33:19 45° ESE 21:35:08 32° SSE
NOSS 3-4 (A) 4.0 21:27:25 10° NW 21:34:04 62° SW 21:38:39 26° SSE
NOSS 3-4 (C) 4.0 21:28:04 10° NW 21:34:44 63° SW 21:39:17 26° SSE
Cosmos-2242 3.3 21:34:03 37° SE 21:35:02 44° E 21:38:58 10° NNE
Cosmos 2034 Rocket 4.0 21:32:54 24° S 21:36:55 76° E 21:43:16 10° NNE
Ariane Rocket 4.0 21:38:06 19° SSW 21:41:19 39° W 21:46:05 10° NNW
USA 234 4.3 21:42:21 10° ENE 21:47:10 23° ESE 21:47:10 23° ESE
TSX-5 4.2 21:46:32 10° NNW 21:49:30 39° NE 21:50:06 35° E
Nadezhda 4 Rocket 4.4 21:46:26 10° NNW 21:52:23 54° W 21:56:13 22° SSW
Cosmos 2333 Rocket 3.7 21:50:28 10° NW 21:55:10 27° WSW 21:58:17 17° SSW
Helios 1B rocket 2.2 21:55:11 51° ESE 21:55:40 57° ENE 21:59:07 10° N
Cosmos 1763 Rocket 3.5 21:53:12 22° SSW 21:56:40 84° WNW 22:01:58 10° NNE
Cosmos 1825 Rocket 4.5 21:53:18 10° NNW 21:57:23 40° W 21:59:17 26° SW
Okean 1 3.9 21:56:18 29° SW 21:57:43 45° WNW 22:01:11 10° N
Cosmos 1470 3.5 21:55:06 10° N 21:58:05 31° ENE 21:58:12 31° ENE
Cosmos 1536 2.6 21:54:58 10° N 21:58:40 70° E 21:59:12 58° SE
Cosmos 1707 2.2 21:59:51 64° NNE 21:59:51 64° NNE 22:02:19 10° N
Cosmos 2221 3.7 21:59:07 25° E 21:59:29 26° E 22:02:57 10° NNE
Cosmos 1898 Rocket 4.0 21:54:43 10° NNW 21:59:47 50° ENE 22:02:03 30° ESE
Cosmos 1634 Rocket 4.0 21:57:45 33° SSE 22:00:36 66° E 22:06:45 10° NNE
CSL-04 DEB 4.3 22:01:35 51° ESE 22:02:06 58° ENE 22:05:41 10° N
Cosmos 1833 4.2 21:57:58 19° SSW 22:02:11 85° WNW 22:07:52 10° NNE
Cosmos 2297 Rocket 3.8 22:01:44 17° ESE 22:02:14 17° E 22:05:48 10° ENE
Cosmos 1953 Rocket 3.8 21:59:16 10° NNW 22:03:33 59° W 22:04:56 38° SSW
CZ-2C R/B 4.3 21:59:24 10° NNE 22:03:34 37° E 22:04:14 35° ESE
Cosmos 44 3.4 21:59:29 10° NW 22:04:55 85° SW 22:06:56 39° SSE
Cosmos 990 Rocket 4.3 21:59:54 10° NNW 22:04:58 57° WSW 22:06:54 35° SSW
Cosmos 2360 Rocket 3.2 22:03:53 10° NW 22:08:58 35° WSW 22:11:23 24° SSW
Meteor 2-6 Rocket 4.5 22:08:15 36° SSE 22:10:36 60° E 22:16:27 10° NNE
Cosmos 2322 3.9 22:05:32 10° NNW 22:11:14 68° ENE 22:13:46 34° SE
USA 290 4.1 22:12:10 18° WSW 22:13:48 27° WNW 22:16:33 10° N
ISS -3.8 22:10:51 10° WNW 22:14:13 82° NNE 22:14:19 80° NE
Cosmos 2026 Rocket 4.3 22:08:45 10° NNW 22:15:04 64° W 22:18:17 30° SSW
BREEZE-M DEB (TANK) 4.1 22:13:05 10° W 22:13:11 11° W 22:13:11 11° W
Cosmos 2058 Rocket 3.0 22:14:25 46° SSW 22:15:40 82° W 22:20:01 10° N
Helios 1A 3.1 22:17:31 10° N 22:21:24 62° WNW 22:22:30 42° SW
Cosmos 2219 Rocket 2.9 22:17:09 10° NW 22:22:28 43° WSW 22:24:29 31° SSW
KORONAS-FOTON 3.4 22:25:06 74° W 22:25:10 74° W 22:28:35 10° N
Cosmos 1975 2.9 22:21:34 10° N 22:25:11 53° ENE 22:25:24 52° E
Cosmos 841 Rocket 3.8 22:28:15 43° SE 22:29:21 50° ESE 22:34:25 10° NNE
RESURS DK-1 2.1 22:28:05 10° NNW 22:32:05 81° ENE 22:32:35 66° SE
ARIANE 5 R/B 2.6 22:32:16 53° SSE 22:33:16 79° ENE 22:37:45 10° NNW
ALOS 2 2.7 22:33:58 50° SE 22:34:56 68° ENE 22:39:19 10° N
Cosmos 2322 Rocket 4.0 22:36:30 10° WNW 22:40:23 19° W 22:42:34 16° SW
Cosmos 1271 Rocket 2.5 22:46:13 68° WNW 22:46:13 68° WNW 22:49:31 10° N
Cosmos 372 Rocket 4.2 22:41:41 10° NNW 22:46:40 55° WSW 22:47:53 44° SSW
SL-16 R/B 4.3 22:42:42 10° N 22:47:05 22° NE 22:51:27 10° E
Cosmos 1842 3.4 22:47:39 49° WNW 22:47:39 49° WNW 22:50:32 10° N
Lacrosse 4 Rocket 3.3 22:51:57 17° E 22:51:57 17° E 22:53:53 10° ENE
Spot 4 3.8 22:51:57 51° SSW 22:53:03 71° WSW 22:57:51 10° NNW
Meteor 2-9 Rocket 4.1 22:48:51 10° NNW 22:54:15 73° W 22:55:56 45° S
PSLV R/B 3.5 22:51:08 10° NNE 22:55:26 67° ESE 22:55:59 59° SSE
Cosmos 2237 Rocket 2.5 22:54:02 10° NNW 22:59:42 63° ENE 23:02:17 32° SE
CZ-2C R/B 3.2 22:58:57 32° ESE 23:01:03 49° ENE 23:06:04 10° N
BREEZE-M DEB (TANK) 4.1 22:46:18 10° WSW 23:01:40 87° SSE 23:05:27 10° ENE
Cosmos 1980 3.8 22:58:13 10° NNW 23:03:53 71° ENE 23:06:13 36° SE
ARGOS Delta rocket 4.0 22:59:41 10° N 23:04:51 85° WNW 23:06:31 46° SSW
Cosmos 858 Rocket 4.4 23:00:01 10° NNW 23:05:15 86° ENE 23:06:42 49° SSE
Cosmos 2142 Rocket 4.5 23:05:16 39° SSW 23:07:50 81° W 23:14:06 10° N
Cosmos 1937 Rocket 3.5 23:03:13 10° NNW 23:08:19 65° WSW 23:09:27 50° SSW
Cosmos 2180 Rocket 4.5 23:06:36 39° SSW 23:09:07 82° W 23:15:30 10° N
COSMOS 2428 3.0 23:05:14 10° NW 23:10:45 53° WSW 23:12:11 43° SSW
Cosmos 2227 Rocket 3.4 23:11:04 24° ESE 23:12:05 26° ESE 23:16:39 10° NE
Meteor 2-4 Rocket 4.2 23:11:49 37° SE 23:13:17 45° E 23:18:31 10° NNE
NOSS 0 Rocket 3.9 23:07:19 10° NW 23:13:27 67° WSW 23:15:26 43° S
Meteor 1-11 Rocket 3.7 23:08:24 10° NNW 23:14:04 77° W 23:15:45 46° S
MetOp-A 3.7 23:18:10 54° SSE 23:19:19 89° WSW 23:24:02 10° NNW
Meteor 1-10 Rocket 4.3 23:17:23 42° SSW 23:19:31 83° WNW 23:25:30 10° N
Cosmos 2263 Rocket 3.8 23:20:54 18° ESE 23:22:03 19° E 23:25:56 10° NE
Cosmos 1812 Rocket 3.9 23:25:18 47° WSW 23:26:10 57° WNW 23:30:32 10° N
Cosmos 1238 Rocket 2.9 23:25:54 58° ESE 23:26:11 60° E 23:30:27 10° NNE
USA 234 3.2 23:24:34 10° ENE 23:31:07 70° SE 23:34:29 31° SW
SeaSat 1 3.1 23:28:37 25° ESE 23:31:16 52° NE 23:36:02 10° NNW
CZ-2C R/B 3.3 23:27:59 10° NNE 23:33:47 86° ESE 23:35:48 44° S
Meteor 1-27 Rocket 3.7 23:32:34 45° S 23:34:31 87° E 23:40:17 10° NNE
ACS3 Solar Sail 2.7 23:29:33 10° NNE 23:35:00 35° E 23:37:20 26° SE
Cosmos 2221 3.6 23:35:23 29° W 23:36:22 33° WNW 23:40:11 10° N
ATLAS 2AS CENTAUR R/B 4.3 23:31:47 10° NW 23:37:55 34° NNE 23:44:01 10° E
Meteor 2-20 Rocket 4.2 23:37:28 45° S 23:39:21 82° E 23:45:05 10° NNE
BlueWalker 3 3.5 23:41:18 23° E 23:41:18 23° E 23:42:53 10° ENE
Cosmos 2297 Rocket 2.1 23:43:29 42° SSW 23:45:30 86° WNW 23:51:12 10° NNE
Okean 3 Rocket 4.3 23:43:32 10° N 23:47:56 47° ENE 23:49:21 35° ESE
Landsat 5 3.3 23:47:14 10° NNE 23:51:18 66° ESE 23:51:40 62° SE
Cosmos 1842 Rocket 3.6 23:53:33 55° SSE 23:54:17 67° E 23:58:41 10° NNE
GP-B 3.9 23:51:09 10° NNW 23:55:13 38° W 23:56:01 35° WSW
